Stations météo

réclame
Mon MeteoGroup
Mildenhall Royal Air Force Bas, Grande-Bretagne (3577): Température de l'air & dewpoint: 14.06.2018 06:00:00 - 20.06.2018 06:00:00 (BST)Mildenhall Royal Air Force Bas, Grande-Bretagne (3577): Vitesse du vent & gusts: 14.06.2018 06:00:00 - 20.06.2018 06:00:00 (BST)Mildenhall Royal Air Force Bas, Grande-Bretagne (3577): Direction du vent: 14.06.2018 06:00:00 - 20.06.2018 06:00:00 (BST)Mildenhall Royal Air Force Bas, Grande-Bretagne (3577): reduced air pressure: 14.06.2018 06:00:00 - 20.06.2018 06:00:00 (BST)Mildenhall Royal Air Force Bas, Grande-Bretagne (3577): visibility: 14.06.2018 06:00:00 - 20.06.2018 06:00:00 (BST)Mildenhall Royal Air Force Bas, Grande-Bretagne (3577): Quantités de précipitations: 14.06.2018 06:00:00 - 20.06.2018 06:00:00 (BST)
Date & Time tt [°C] td [°C] ff [km/h] ff [knt] fx [km/h] fx [knt] dd ppp [hPa] vv [km] rr [mm]
20.06.2018 06:00:00 16,3 16,3 8 4 - - SSW 1019,2 10 -
20.06.2018 05:00:00 15,4 15,4 8 4 - - SSW 1019,6 10 0,0
20.06.2018 04:00:00 15,8 15,8 11 6 - - SSW 1019,9 10 0,0
20.06.2018 03:00:00 16,7 16,7 16 9 - - SW 1019,9 10 -
20.06.2018 02:00:00 17,3 17,3 15 8 - - SW 1020,3 10 -
20.06.2018 01:00:00 17,4 17,4 13 7 - - SSW 1020,6 10 -
20.06.2018 00:00:00 17,2 17,2 9 5 - - SW 1020,6 10 -
19.06.2018 23:00:00 18,4 18,4 11 6 - - SW 1020,9 10 -
19.06.2018 22:00:00 20,1 20,1 15 8 - - WSW 1020,9 10 0,0
19.06.2018 21:00:00 21,3 20,8 15 8 - - SW 1020,6 10 0,0
19.06.2018 20:00:00 22,7 19,0 16 9 - - WSW 1020,6 10 -
19.06.2018 19:00:00 23,0 18,9 21 11 - - WSW 1020,6 10 -
19.06.2018 18:00:00 24,2 18,1 21 11 - - WSW 1020,6 10 -
19.06.2018 17:00:00 24,0 17,9 24 13 - - WSW 1020,6 10 -
19.06.2018 16:00:00 23,9 17,6 22 12 - - WSW 1020,9 10 -
19.06.2018 15:00:00 23,7 17,2 18 10 - - SSW 1021,3 10 0,0
19.06.2018 14:00:00 22,8 17,2 16 9 - - WSW 1021,6 10 0,0
19.06.2018 13:00:00 22,5 17,8 15 8 - - SW 1021,9 10 0,0
19.06.2018 12:00:00 21,5 18,1 16 9 - - WSW 1022,3 10 -
19.06.2018 11:00:00 20,8 18,7 13 7 - - W 1022,3 10 -
19.06.2018 10:00:00 19,9 19,2 13 7 - - WSW 1022,3 10 -
19.06.2018 09:00:00 19,7 18,9 21 11 - - W 1022,3 10 -
19.06.2018 08:00:00 19,5 19,5 18 10 - - W 1021,6 10 -
19.06.2018 07:00:00 18,1 18,1 18 10 - - WSW 1021,6 10 -
19.06.2018 06:00:00 17,3 17,3 18 10 - - WSW - 10 0,0
19.06.2018 05:00:00 17,3 17,3 15 8 - - WSW - 10 0,0
19.06.2018 04:00:00 17,3 17,3 16 9 - - WSW - 10 0,0
19.06.2018 03:00:00 17,5 17,5 16 9 - - WSW - 10 -
19.06.2018 02:00:00 17,5 17,5 16 9 - - WSW - 10 -
19.06.2018 01:00:00 17,6 17,6 22 12 - - WSW - 10 -
19.06.2018 00:00:00 19,1 19,1 26 14 52 28 WSW - 10 -
18.06.2018 23:00:00 19,7 19,7 28 15 - - WSW - 10 -
18.06.2018 22:00:00 20,0 19,7 24 13 - - WSW 1018,2 10 -
18.06.2018 21:00:00 20,3 19,1 22 12 - - WSW 1017,6 10 0,0
18.06.2018 20:00:00 21,2 17,6 29 16 - - WSW 1017,6 10 -
18.06.2018 19:00:00 22,7 15,3 29 16 48 26 WSW 1016,9 10 -
18.06.2018 18:00:00 23,1 14,6 22 12 - - WSW 1016,5 10 -
18.06.2018 17:00:00 24,4 13,9 28 15 - - WSW 1016,5 10 -
18.06.2018 16:00:00 - - - - - - - - - -
18.06.2018 15:00:00 - - - - - - - - - -
18.06.2018 14:00:00 - - - - - - - - - -
18.06.2018 13:00:00 - - - - - - - - - -
18.06.2018 12:00:00 - - - - - - - - - -
18.06.2018 11:00:00 - - - - - - - - - -
18.06.2018 10:00:00 18,8 16,2 26 14 - - W 1017,2 10 -
18.06.2018 09:00:00 16,6 16,6 21 11 - - WSW 1017,2 10 -
18.06.2018 08:00:00 15,7 15,7 22 12 - - WSW 1016,5 10 -
18.06.2018 07:00:00 15,8 15,8 21 11 - - WSW 1015,9 10 -
18.06.2018 06:00:00 15,8 15,8 18 10 - - SW 1015,5 10 -
18.06.2018 05:00:00 15,6 15,6 13 7 - - WSW 1015,5 10 -
18.06.2018 04:00:00 15,6 15,6 16 9 - - SW 1015,2 10 0,0
18.06.2018 03:00:00 15,7 15,7 11 6 - - SW 1015,2 10 -
18.06.2018 02:00:00 15,6 15,6 15 8 - - SW 1015,2 10 -
18.06.2018 01:00:00 15,3 15,3 16 9 - - SSW 1015,5 10 0,0
18.06.2018 00:00:00 15,5 15,5 21 11 - - SSW 1015,5 10 0,0
17.06.2018 23:00:00 15,8 15,8 24 13 - - SSW 1015,5 10 -
17.06.2018 22:00:00 16,1 16,1 22 12 - - SSW 1015,2 10 -
17.06.2018 21:00:00 16,5 16,5 22 12 - - SSW 1015,2 10 -
17.06.2018 20:00:00 17,1 16,3 22 12 - - SW 1015,2 10 -
17.06.2018 19:00:00 17,5 15,1 22 12 - - SW 1015,2 10 -
17.06.2018 18:00:00 18,0 14,1 18 10 - - SW 1014,9 10 -
17.06.2018 17:00:00 18,6 12,6 28 15 - - SW 1014,9 10 -
17.06.2018 16:00:00 18,4 13,3 15 8 - - WSW 1015,2 10 -
17.06.2018 15:00:00 18,6 11,9 24 13 - - WSW 1015,2 10 -
17.06.2018 14:00:00 18,4 12,6 16 9 - - WSW 1015,2 10 0,0
17.06.2018 13:00:00 18,2 12,2 24 13 - - WSW 1015,2 10 0,0
17.06.2018 12:00:00 17,6 13,5 22 12 - - WSW 1014,9 10 -
17.06.2018 11:00:00 17,3 13,8 22 12 - - WSW 1014,9 10 -
17.06.2018 10:00:00 16,4 14,7 22 12 - - WSW 1015,2 10 0,0
17.06.2018 09:00:00 15,5 15,5 22 12 - - WSW 1015,2 10 -
17.06.2018 08:00:00 14,1 14,1 16 9 - - WSW 1014,5 10 -
17.06.2018 07:00:00 13,4 13,4 15 8 - - SW 1014,2 10 -
17.06.2018 06:00:00 12,3 12,3 13 7 - - SSW 1013,8 10 -
17.06.2018 05:00:00 11,9 11,9 16 9 - - SW 1013,5 10 0,0
17.06.2018 04:00:00 11,2 11,2 13 7 - - SW 1013,5 10 0,0
17.06.2018 03:00:00 10,7 10,7 8 4 - - SW 1013,5 10 -
17.06.2018 02:00:00 11,7 11,7 11 6 - - SW 1013,2 10 -
17.06.2018 01:00:00 12,5 12,5 15 8 - - WSW 1012,8 10 0,0
17.06.2018 00:00:00 14,0 13,7 16 9 - - WSW 1012,8 10 -
16.06.2018 23:00:00 14,5 13,7 21 11 - - WSW 1012,5 10 -
16.06.2018 22:00:00 16,1 16,1 31 17 - - SW 1011,8 10 -
16.06.2018 21:00:00 16,8 16,6 28 15 - - SSW 1011,1 10 0,0
16.06.2018 20:00:00 18,1 15,7 28 15 - - SSW 1011,1 10 0,0
16.06.2018 19:00:00 18,6 15,1 26 14 48 26 SW 1011,1 10 -
16.06.2018 18:00:00 19,2 12,7 31 17 - - SW 1011,1 10 -
16.06.2018 17:00:00 20,0 12,0 24 13 - - SW 1011,5 10 -
16.06.2018 16:00:00 19,4 11,4 24 13 - - SW 1012,1 10 -
16.06.2018 15:00:00 19,9 10,0 22 12 - - WSW 1012,1 10 -
16.06.2018 14:00:00 19,7 9,8 22 12 - - SSW 1012,5 10 -
16.06.2018 13:00:00 19,4 10,1 21 11 - - SSW 1012,8 10 -
16.06.2018 12:00:00 18,1 12,3 24 13 - - WSW 1013,5 10 -
16.06.2018 11:00:00 16,8 13,3 16 9 - - SW 1013,8 10 0,0
16.06.2018 10:00:00 15,2 12,5 13 7 - - WSW 1013,8 10 -
16.06.2018 09:00:00 14,4 14,4 11 6 - - WSW 1014,2 10 -
16.06.2018 08:00:00 13,3 13,3 5 3 - - WSW 1014,2 10 0,0
16.06.2018 07:00:00 13,3 13,3 9 5 - - SSW 1014,2 10 -
16.06.2018 06:00:00 12,9 12,9 11 6 - - SW 1013,8 10 -
16.06.2018 05:00:00 12,7 12,7 5 3 - - SSW 1013,8 10 0,0
16.06.2018 04:00:00 12,8 12,8 9 5 - - SW 1014,2 10 -
16.06.2018 03:00:00 12,9 12,9 9 5 - - SSW 1014,5 10 -
16.06.2018 02:00:00 13,2 13,2 5 3 - - SSW 1014,5 10 -
16.06.2018 01:00:00 13,0 13,0 9 5 - - SSW 1015,2 10 -
16.06.2018 00:00:00 14,3 13,3 0 0 - - N 1014,8 10 -
15.06.2018 23:00:00 14,7 12,6 0 0 - - N 1015,2 10 -
15.06.2018 22:00:00 15,5 11,3 0 0 - - N 1015,2 10 0,0
15.06.2018 21:00:00 17,3 9,9 0 0 - - N 1015,2 10 0,0
15.06.2018 20:00:00 18,6 8,8 18 10 - - W 1014,8 10 -
15.06.2018 19:00:00 19,9 7,6 15 8 - - W 1014,5 10 -
15.06.2018 18:00:00 20,5 9,4 24 13 - - W 1014,9 10 -
15.06.2018 17:00:00 21,0 8,3 16 9 - - WSW 1014,9 10 -
15.06.2018 16:00:00 22,0 9,2 16 9 - - SW 1015,2 10 -
15.06.2018 15:00:00 20,8 8,1 11 6 - - WSW 1015,5 10 -
15.06.2018 14:00:00 21,4 8,3 15 8 - - SSW 1015,9 10 0,0
15.06.2018 13:00:00 20,2 8,2 5 3 - - SSW 1015,5 10 0,0
15.06.2018 12:00:00 20,5 7,8 16 9 - - WSW 1016,2 10 0,0
15.06.2018 11:00:00 20,0 9,0 8 4 - - WNW 1016,2 9 0,0
15.06.2018 10:00:00 18,7 9,5 8 4 - - NNW 1016,2 10 0,0
15.06.2018 09:00:00 16,5 12,2 0 0 - - N 1016,5 10 -
15.06.2018 08:00:00 14,4 13,6 8 4 - - W 1016,5 10 -
15.06.2018 07:00:00 12,4 12,4 8 4 - - WSW 1016,2 10 -
15.06.2018 06:00:00 10,3 10,3 0 0 - - N 1015,9 10 -
15.06.2018 05:00:00 9,9 9,9 0 0 - - N 1015,5 10 -
15.06.2018 04:00:00 11,2 11,2 0 0 - - N 1015,5 10 -
15.06.2018 03:00:00 11,0 11,0 0 0 - - N 1015,5 10 -
15.06.2018 02:00:00 10,5 10,5 5 3 - - SSW 1015,5 10 -
15.06.2018 01:00:00 10,5 10,5 5 3 - - SSW 1015,5 10 -
15.06.2018 00:00:00 12,7 12,7 0 0 - - N 1015,2 10 -
14.06.2018 23:00:00 13,3 12,5 0 0 - - N 1014,9 10 0,0
14.06.2018 22:00:00 15,8 9,9 0 0 - - N 1014,5 10 -
14.06.2018 21:00:00 17,2 9,6 5 3 - - NW 1013,8 10 0,0
14.06.2018 20:00:00 19,8 8,8 18 10 - - WNW 1013,2 10 -
14.06.2018 19:00:00 19,8 7,8 26 14 - - W 1012,1 10 -
14.06.2018 18:00:00 20,7 8,0 24 13 - - WNW 1011,8 10 -
14.06.2018 17:00:00 22,1 8,6 31 17 - - W 1011,1 10 -
14.06.2018 16:00:00 22,3 9,1 29 16 - - WNW 1010,4 10 -
14.06.2018 15:00:00 22,5 10,0 34 18 52 28 W 1009,4 10 -
14.06.2018 14:00:00 21,1 13,3 34 18 54 29 W 1008,7 10 -
14.06.2018 13:00:00 20,5 15,9 35 19 59 32 W 1008,4 10 -
14.06.2018 12:00:00 18,3 18,3 39 21 54 29 SW 1007,7 10 -
14.06.2018 11:00:00 18,2 18,2 39 21 55 30 SW 1007,1 10 -
14.06.2018 10:00:00 17,3 17,3 37 20 61 33 SSW 1007,1 10 -
14.06.2018 09:00:00 16,8 16,8 31 17 50 27 SSW 1007,1 10 -
14.06.2018 08:00:00 16,1 16,1 31 17 55 30 SSW 1007,7 10 -
14.06.2018 07:00:00 15,3 15,3 35 19 - - SSW 1007,7 10 -
14.06.2018 06:00:00 14,9 14,9 31 17 - - SSW 1008,4 10 -

tt = Température de l'air
td = dewpoint
ff = Vitesse du vent
fx = gusts
dd = Direction du vent
ppp = reduced air pressure
vv = visibility
rr = Quantités de précipitations

stations d'obs. à proximité